Regional Weather Roundup
Issued by NWS Goodland, KS

Home | Current Version | Previous Version | Text Only | Print | Product List | Glossary On
Versions: 1 2 3 4 5 6 7 8 9 10 11 12 13 14 15 16 17 18 19 20 21 22 23 24 25 26 27 28 29 30 31 32 33 34 35 36 37 38 39 40 41 42 43 44 45 46 47 48 49 50
000
ASUS43 KGLD 061608
RWRGLD

GOODLAND FORECAST AREA HOURLY WEATHER ROUNDUP
NATIONAL WEATHER SERVICE GOODLAND KS
900 AM MST TUE DEC 06 2016

...OFFICIAL OBSERVATIONS...

CITY           SKY/WX    TMP DP  RH WIND       PRES   REMARKS
GOODLAND KS    SUNNY     22   7  52 W8        30.06R
HILL CITY KS   SUNNY     28   9  44 NW15      30.12R WCI  16
IMPERIAL NEB   SUNNY     20   5  52 W13       30.05R WCI   7
MCCOOK NEB     SUNNY     23   8  52 W14       30.08R WCI  11
AKRON CO       SUNNY     18   0  45 W10       29.99R WCI   6
BURLINGTON CO  SUNNY     19   7  59 SW7       30.04R
LIMON CO       SUNNY     14   6  70 CALM      29.98S
$$

...UNOFFICIAL OBSERVATIONS...

CITY           SKY/WX    TMP DP  RH WIND       PRES   REMARKS
COLBY KS       SUNNY     27  10  50 W10       30.09S WCI  17
LENORA KS        N/A     24  32 100 MISG        N/A
NORTON KS      SUNNY     28   9  43 W14       30.08R WCI  17
SHARON SPRINGS   N/A     24   7  49 N6          N/A
TRENTON NEB      N/A     20  32 100 NW7         N/A
KIT CARSON CO    N/A     19   7  59 CALM        N/A
YUMA CO        FAIR      19   7  58 SW10      30.02R WCI   8
$$



USA.gov is the U.S. government's official web portal to all federal, state and local government web resources and services.